Tracking 19709 objects as of 18-Jun-2019
HD Live streaming from Space Station
objects crossing your sky now

COSMOS 1823 DEB

Track COSMOS 1823 DEB now!
10-day predictions


NORAD ID: 18751
Int'l Code: 1987-020AC
Perigee: 1,483.8 km
Apogee: 1,605.1 km
Inclination: 73.6 °
Period: 116.8 minutes
Semi major axis: 7915 km
RCS: 0.1997 m2 (medium)
Launch date: February 20, 1987
Source: Commonwealth of Independent States (former USSR) (CIS)
Launch site: PLESETSK MISSILE AND SPACE COMPLEX (PKMTR)

Note: This is SATELLITE DEBRIS
aabbcc
Your satellite tracking list
Your tracking list is empty




NASA's NSSDC Master Catalog

Two Line Element Set (TLE):
1 18751U 87020AC  19168.38941315 -.00000020 +00000-0 -30386-4 0  9996
2 18751 073.6276 149.6793 0076656 168.7655 343.6606 12.32795440417100
Source of the keplerian elements: AFSPC